Richmond, VA

2:06 PM EDT on September 26, 2016 (GMT -0400)
Richmond International

Weather History for KRIC - December, 2013

Change the Weather History Date:

Friday, December 20, 2013

  Actual Average Record
Temperature  
Mean Temperature 54 °F 40 °F  
Max Temperature 66 °F 49 °F 74 °F (1931)
Min Temperature 41 °F 30 °F 2 °F (1942)
Degree Days  
Heating Degree Days 11 25  
Month to date heating degree days 441 456  
Since 1 July heating degree days 1081 1132  
Cooling Degree Days 0 0  
Month to date cooling degree days 0 0  
Year to date cooling degree days 1678 1548  
Growing Degree Days 4 (Base 50)    
Moisture  
Dew Point 41 °F    
Average Humidity 68    
Maximum Humidity 86    
Minimum Humidity 49    
Precipitation  
Precipitation 0.00 in 0.10 in 2.10 in (1957)
Month to date precipitation 3.49 2.16  
Year to date precipitation 51.06 42.50  
Snow  
Snow 0.00 in 0.00 in 4.50 in (1942)
Month to date snowfall T 1.2  
Since 1 July snowfall T 1.4  
Snow Depth 0.00 in    
Sea Level Pressure  
Sea Level Pressure 30.16 in    
Wind  
Wind Speed 11 mph (SSW)    
Max Wind Speed 24 mph    
Max Gust Speed 29 mph    
Visibility 10 miles    
Events      
T = Trace of Precipitation, MM = Missing Value Source: NWS Daily Summary

Daily Weather History Graph

Daily Weather History Graph

Search for Another Location

Airport or City:

Trip Planner

Search our weather history database for the weather conditions in past years. The results will help you decide how hot, cold, wet, or windy it might be!

Date:

Astronomy

Dec. 20, 2013 Rise Set
Actual Time 7:19 AM EST 4:54 PM EST
Civil Twilight 6:50 AM EST 5:23 PM EST
Nautical Twilight 6:17 AM EST 5:56 PM EST
Astronomical Twilight 5:45 AM EST 6:28 PM EST
Moon 8:09 PM EST (12/20) 9:15 AM EST (12/20)
Length of Visible Light 10h 33m
Length of Day
9h 34m
Waning Gibbous, 90% of the Moon is Illuminated
Dec 20
Waning Gibbous
Dec 25
Last Quarter
Jan 1
New
Jan 7
First Quarter
Jan 15
Full

Hourly Weather History & Observations

Time (EST) Temp. Windchill Dew Point Humidity Pressure Visibility Wind Dir Wind Speed Gust Speed Precip Events Conditions
12:54 AM 46.0 °F 41.4 °F 28.9 °F 51% 30.20 in 10.0 mi South 9.2 mph - N/A   Overcast
1:54 AM 46.9 °F - 28.0 °F 48% 30.18 in 10.0 mi South 10.4 mph - N/A   Overcast
2:54 AM 45.0 °F 40.1 °F 28.9 °F 53% 30.19 in 10.0 mi South 9.2 mph - N/A   Overcast
3:54 AM 44.1 °F 39.5 °F 28.9 °F 55% 30.21 in 10.0 mi SSW 8.1 mph - N/A   Overcast
4:54 AM 43.0 °F 37.7 °F 28.9 °F 58% 30.20 in 10.0 mi South 9.2 mph - N/A   Overcast
5:54 AM 41.0 °F 34.7 °F 28.9 °F 62% 30.20 in 10.0 mi South 10.4 mph - N/A   Mostly Cloudy
6:54 AM 42.1 °F 36.6 °F 30.9 °F 65% 30.20 in 10.0 mi South 9.2 mph - N/A   Mostly Cloudy
7:54 AM 43.0 °F 37.2 °F 33.1 °F 68% 30.21 in 10.0 mi South 10.4 mph - N/A   Overcast
8:54 AM 48.0 °F - 36.0 °F 63% 30.21 in 10.0 mi SSW 9.2 mph - N/A   Overcast
9:54 AM 51.1 °F - 39.0 °F 63% 30.22 in 10.0 mi South 9.2 mph - N/A   Overcast
10:54 AM 57.0 °F - 45.0 °F 64% 30.20 in 10.0 mi SSW 10.4 mph - N/A   Overcast
11:54 AM 59.0 °F - 46.0 °F 62% 30.17 in 10.0 mi SW 17.3 mph 23.0 mph N/A   Overcast
12:54 PM 63.0 °F - 48.0 °F 58% 30.14 in 10.0 mi SSW 12.7 mph 21.9 mph N/A   Overcast
1:54 PM 66.0 °F - 48.9 °F 54% 30.10 in 10.0 mi SW 16.1 mph 26.5 mph N/A   Overcast
2:54 PM 64.9 °F - 50.0 °F 58% 30.09 in 10.0 mi SSW 12.7 mph 20.7 mph N/A   Overcast
3:54 PM 64.9 °F - 50.0 °F 58% 30.08 in 10.0 mi SSW 15.0 mph 24.2 mph N/A   Mostly Cloudy
4:54 PM 61.0 °F - 50.0 °F 67% 30.10 in 10.0 mi SSW 11.5 mph - N/A   Overcast
5:54 PM 57.0 °F - 50.0 °F 77% 30.12 in 10.0 mi South 5.8 mph - N/A   Overcast
6:54 PM 57.9 °F - 51.1 °F 78% 30.11 in 10.0 mi South 9.2 mph - N/A   Overcast
7:54 PM 55.9 °F - 51.1 °F 84% 30.12 in 10.0 mi South 9.2 mph - N/A   Overcast
8:54 PM 57.0 °F - 51.1 °F 81% 30.12 in 10.0 mi SSW 10.4 mph - N/A   Overcast
9:54 PM 57.0 °F - 48.9 °F 74% 30.13 in 10.0 mi SSW 9.2 mph - N/A   Overcast
10:54 PM 57.0 °F - 48.0 °F 72% 30.13 in 10.0 mi SSW 10.4 mph - N/A   Overcast
11:54 PM 55.0 °F - 48.0 °F 77% 30.12 in 10.0 mi South 9.2 mph - N/A   Overcast